Volver al catálogo

TIANQI 28

ActivoComunicacionesLEO
NORAD 59912·PAYLOAD·🇨🇳 China

Lanzado May 29, 2024 desde Yellow Sea Launch Area

Loading…

Próximos Pases (próximas 24 horas)

TLE

ActualizadoSource: Space-Track

Época: Sep 14, 2026, 11:01 UTC

1 59912U 24102D   26257.45971298 -.00000037  00000-0  62451-4 0  9995
2 59912  44.9776 224.4319 0013315 309.6300  50.3357 13.99190402117408

Sigue TIANQI 28 en tiempo real con AllMySat

Download on the App Store